This is the latest recevied weather packets stored in our database for station/object KI7YRV. If no packets are shown the sender has not sent any weather packets the latest 10 day(s).
| Time | Temp. | Humidity | Pressure | Rain* | Wind** | Luminosity | Snow |
|---|---|---|---|---|---|---|---|
| 1777641615 | 1.67° C | 70% | 1024.2 hPa | 0 mm | - | - | - |
| 1777641019 | 1.67° C | 71% | 1024.2 hPa | 0 mm | - | - | - |
| 1777639220 | 0.56° C | 74% | 1023.7 hPa | 0 mm | - | - | - |
| 1777635623 | -1.11° C | 79% | 1023.7 hPa | 0 mm | - | - | - |
| 1777635028 | -0.56° C | 77% | 1023.7 hPa | 0 mm | - | - | - |
| 1777630843 | 0.56° C | 74% | 1023.5 hPa | 0 mm | - | - | - |
| 1777624826 | 0° C | 73% | 1023.6 hPa | 0 mm | - | - | - |
| 1777621216 | 1.67° C | 66% | 1023.7 hPa | 0 mm | - | - | - |
| 1777616440 | 4.44° C | 47% | 1023.7 hPa | 0 mm | - | - | - |
| 1777610453 | 6.11° C | 42% | 1023.7 hPa | 0 mm | - | - | - |
| 1777607432 | 6.67° C | 42% | 1023.5 hPa | 0 mm | - | - | - |
| 1777601422 | 8.89° C | 40% | 1022.6 hPa | 0 mm | - | - | - |
| 1777596621 | 12.22° C | 34% | 1022.3 hPa | 0 mm | - | - | - |
| 1777593029 | 13.89° C | 30% | 1022.3 hPa | 0 mm | - | - | - |
| 1777591819 | 13.33° C | 31% | 1022.3 hPa | 0 mm | - | - | - |
| 1777591224 | 13.33° C | 32% | 1022.3 hPa | 0 mm | - | - | - |
| 1777588823 | 13.33° C | 33% | 1022.6 hPa | 0 mm | - | - | - |
| 1777585827 | 13.89° C | 33% | 1022.9 hPa | 0 mm | - | - | - |
| 1777585231 | 12.78° C | 34% | 1023.1 hPa | 0 mm | - | - | - |
| 1777574419 | 10° C | 41% | 1024.2 hPa | 0 mm | - | - | - |
| 1777573248 | 10.56° C | 41% | 1024.4 hPa | 0 mm | - | - | - |
| 1777568448 | 10° C | 49% | 1024.7 hPa | 0 mm | - | - | - |
| 1777566027 | 8.89° C | 53% | 1024.8 hPa | 0 mm | - | - | - |
| 1777564818 | 8.33° C | 54% | 1024.8 hPa | 0 mm | - | - | - |
| 1777555819 | 3.33° C | 90% | 1025 hPa | 0 mm | - | - | - |
* Rain latest hour (hover to see other rain measurements)
** Current wind speed in m/s (hover to see current wind gust speed)